Regional Weather Roundup
Issued by NWS

Home | Current Version | Previous Version | Graphics & Text | Print | Product List | Glossary On
Versions: 1 2 3 4 5 6 7 8 9 10 11 12 13 14 15 16 17 18 19 20 21 22 23 24 25 26 27 28 29 30 31 32 33 34 35 36 37 38 39 40 41 42 43 44 45 46 47 48 49 50
845
ASUS45 KTFX 251410
RWRMT
MONTANA REGIONAL WEATHER ROUNDUP
NATIONAL WEATHER SERVICE GREAT FALLS MT
800 AM MDT THU MAY 25 2017

NOTE: "FAIR" INDICATES FEW OR NO CLOUDS BELOW 12000 FEET WITH NO
SIGNIFICANT WEATHER AND/OR OBSTRUCTIONS TO VISIBILITY.

MTZ001>007-043-251500-
WEST OF THE DIVIDE

CITY           SKY/WX    TMP DP  RH WIND       PRES   REMARKS
KALISPELL      CLOUDY    46  41  82 N3        29.79R
MISSOULA       CLOUDY    48  36  63 W3        29.80R
BUTTE          CLOUDY    40  28  62 N10       29.78R
MULLAN PASS    CLOUDY    36  27  69 CALM      29.78R
ANACONDA         N/A     41  30  65 NE8       29.78S
DEER LODGE       N/A     41  34  75 CALM      29.81R
EUREKA           N/A     45  39  81 CALM      29.80S
HAMILTON         N/A     45  34  65 CALM      29.79R
PLAINS           N/A     48  39  71 CALM      29.81R
RONAN            N/A     50  37  60 SW2       29.85R
$$

MTZ008-052>055-251500-
SOUTHWEST MONTANA

CITY           SKY/WX    TMP DP  RH WIND       PRES   REMARKS
BOZEMAN        LGT RAIN  40  36  86 N3        29.77R FOG
DILLON         CLOUDY    42  24  49 SW10      29.76R
W YELLOWSTONE  CLOUDY    32  23  69 CALM      29.76R
ENNIS          CLOUDY    41  25  52 VRB3      29.81R
THREE FORKS      N/A     43  36  76 SW6       29.78R
TWIN BRIDGES     N/A     42  22  45 CALM      29.79R
$$

MTZ009-010-012-014-046-048-049-054-251500-
EAST SLOPES AND CENTRAL MONTANA

CITY           SKY/WX    TMP DP  RH WIND       PRES   REMARKS
CUT BANK       PTSUNNY   47  32  56 NW24G32   29.66R
GREAT FALLS    CLOUDY    47  39  74 NW18G28   29.66R
MALMSTROM AFB  CLOUDY    47  41  77 W20G29    29.65R
HELENA         LGT RAIN  45  38  76 N8        29.75R
CHOTEAU          N/A     48  36  61 NW22G35   29.70R
CONRAD           N/A     49  48  96 W23       29.70R
$$

MTZ011-013-016-021-045-047-050-051-251500-
NORTH CENTRAL MONTANA

CITY           SKY/WX    TMP DP  RH WIND       PRES   REMARKS
HAVRE          CLOUDY    49  45  86 NW25G36   29.48R
LEWISTOWN      LGT RAIN  40  38  93 W25G37    29.57R FOG
N BAR RANCH    PTSUNNY   41  37  87 NW28G45   29.53R
CHINOOK          N/A     52  43  71 W21       29.42R
FORT BENTON      N/A     50  41  71 CALM      29.58R
$$

MTZ017>020-022>027-061-062-251500-
NORTHEAST MONTANA

CITY           SKY/WX    TMP DP  RH WIND       PRES   REMARKS
GLASGOW        PTSUNNY   55  43  63 W25G37    29.32R
JORDAN           N/A     49  39  68 W22G31    29.43R
SIDNEY         MOSUNNY   53  40  61 SW20G26   29.39S
WOLF POINT     LGT RAIN  51  43  74 SW20G29   29.34S
MALTA          PTSUNNY   52  45  76 W20G29    29.37R
PLENTYWOOD       N/A     50  43  76 SW15G24   29.30F
POPLAR           N/A     54  41  62 W24G32    29.35R
SCOBEY           N/A     48  33  56 SW17      29.32R
$$

MTZ028>42-056>058-251500-
SOUTHCENTRAL AND SOUTHEAST MONTANA

CITY           SKY/WX    TMP DP  RH WIND       PRES   REMARKS
BAKER          MOSUNNY   53  33  46 W20       29.48S
BILLINGS       PTSUNNY   50  30  46 W22G29    29.59R
LIVINGSTON     LGT RAIN  40  35  83 W20G28    29.71R
MILES CITY     SUNNY     54  26  34 SW15      29.48F
BIG TIMBER     CLOUDY    39  34  81 W29G39    29.69R WCI  28
FORSYTH          N/A     54  28  37 W15       29.49F
LAUREL           N/A     49  27  42 SW20      29.62R
ROUNDUP          N/A     45  36  70 SW9       29.52R
$$

REGIONAL REPORTS...DAKOTAS

CITY           SKY/WX    TMP DP  RH WIND       PRES   REMARKS
WILLISTON      PTSUNNY   55  41  59 SW15G23   29.37S
MINOT          MOSUNNY   56  50  80 S14       29.37S
DICKINSON      MOSUNNY   53  38  56 W16       29.42S
BEACH            N/A     52  37  58 W21       29.48S
TIOGA            N/A     52  50  93 SW22      29.37S
WATFORD CITY     N/A     54  43  66 SW17      29.38F
BISMARCK       CLOUDY    56  48  74 S6        29.43R
GRAND FORKS    CLOUDY    55  46  71 SE20G26   29.54S
FARGO          MOSUNNY   59  47  64 SE20G32   29.55R
BUFFALO SD       N/A     53  41  63 W15       29.43R
RAPID CITY     MOSUNNY   58  39  49 NW14      29.52R
$$

REGIONAL REPORTS...WYOMING/IDAHO/WASHINGTON

CITY           SKY/WX    TMP DP  RH WIND       PRES   REMARKS
GILLETTE       CLOUDY    50  31  48 NW9       29.57S
SHERIDAN       SUNNY     54  30  40 N9        29.58S
BUFFALO WY     CLOUDY    50  24  36 VRB6      29.60S
CODY           SUNNY     44  27  51 NE3       29.64R
YELLOWSTONE LA   N/A     32  16  51 CALM      29.76R
IDAHO FALLS    SUNNY     45  26  47 NW3       29.76S
SALMON         PTSUNNY   45  30  57 CALM      29.78S
BOISE          SUNNY     48  34  58 NW7       29.77S
SPOKANE        CLOUDY    50  38  63 NW3       29.79R
$$

REGIONAL REPORTS...ALBERTA

CITY           SKY/WX    TMP DP  RH WIND       PRES   REMARKS
EDMONTON       MOSUNNY   50  37  62 N15G22    29.70R
CALGARY        MOSUNNY   48  36  61 N25G36    29.72R
LETHBRIDGE     PTSUNNY   52  37  58 NW28G39   29.66R
MEDICINE HAT   LGT RAIN  48  43  81 NW22G37   29.47R
WATERTON GATE    N/A     50  32  50 N6          N/A
CARDSTON         N/A     48  37  66 NW16G22     N/A
MILK RIVER       N/A     48  39  71 NW33G44     N/A
ONEFOUR          N/A     46  41  81 NW35G44     N/A
$$

REGIONAL REPORTS...SASKATCHEWAN

CITY           SKY/WX    TMP DP  RH WIND       PRES   REMARKS
SWIFT CURRENT  LGT RAIN  45  43  93 N17G23    29.19S
REGINA         LGT RAIN  45  41  87 SE10      29.21F
SASKATOON      PTSUNNY   50  45  81 N17       29.24R
ROCKGLEN         N/A     48  45  87 W15G21      N/A
ASSINIBOIA       N/A     48  37  66 NW21G28     N/A
$$




USA.gov is the U.S. government's official web portal to all federal, state and local government web resources and services.